THOR ABLESTAR DEB, 48810

Orbit data source: Space-Track

THOR ABLESTAR DEB, 48810 is space debris in LEO originally from a launch on Thu, 29 Jun 1961 UTC launched from the Air Force Eastern Test Range (AFETR). Debris objects in space refer to the collection of defunct objects orbiting the Earth. Examples of debris include non-operational satellites, rocket bodies, and fragments generated from explosions, collisions, or faulty payload assembly.

Loading next visibility...
Identifier
48810, 1961-015MN
Orbit
LEO
Country
Flag of USUS
Related business
Manufacturer
Unknown
Mission
Spacecraft
Bus & Motor
Unknown
Mass
Unknown
Launch date (UTC)
1961-06-29 (65 years ago)
Launch vehicle
Unknown
Launch site
Air Force Eastern Test Range (AFETR)
Object type
Payload
Rocket body
Debris
Shape & HBR
Unknown shape, 0.1 m
Radar Cross Section
Small (<0.1 m²)

Expand to show TLE details & history
Last TLE update: 2 days ago

TLE from 2 days ago
0 THOR ABLESTAR DEB
1 48810U 61015MN  26170.06613764  .00000011  00000-0  66298-4 0  9990
2 48810  66.8555 274.0475 0125905 110.9394  66.3107 13.89373058637619
Epoch: 2026-06-19T01:35Z
TLE epoch observation values (Epoch: 2026-06-19T01:35:14.292Z)
Latitude
1.21397°
Longitude
162.42122°
Altitude
896.76 km
Speed
7.422 km/s
True Right ascension
06h 14m 07s
True Declination
1° 12' 25"
Sunlit
Object was in daylight at epoch
Visualization orbit readout
Latitude
Unknown
Longitude
Unknown
Altitude
Unknown
Speed
Unknown
Apparent Right ascension
Unknown
Apparent Declination
Unknown
Sunlit
N/A
Visualization observer readout
Local Sidereal Time
21:41:59
Azimuth
Unknown
Elevation
Unknown
Doppler factor
Unknown
Orbital elements
Apogee altitude
1,021.22 km
Perigee altitude
837.213 km
Semi-major axis
7,307.354 km
Eccentricity
0.01259
Inclination
66.8555°
RAAN
274.0475°
Arg. of periapsis
110.9394°
True anomaly
67.64018°
Mean anomaly
66.3107°
Eccentric anomaly
66.97461°
Mean motion
3.47459 °/min
Orbital period
103.61 mins
BSTAR
0.000066298
Loading maneuver chart data...
Computing Atmospheric mass density...

Documentation

Showing up to 5 results
|